Miscellaneous Local Product
Issued by NWS Hastings, NE

Home | Current Version | Previous Version | Graphics & Text | Print | Product List | Glossary On
Versions: 1 2 3 4 5 6 7 8 9 10 11 12 13 14 15 16 17 18 19 20 21 22 23 24 25 26 27 28 29 30 31 32 33 34 35 36 37 38 39 40 41 42 43 44 45 46 47 48 49 50
000
AXUS43 KGID 210002
MISGRI

GID CWA HOURLY WEATHER ROUNDUP
NATIONAL WEATHER SERVICE HASTINGS NE
700 PM CDT MON OCT 20 2014

NOTE: "FAIR" INDICATES FEW OR NO CLOUDS BELOW 12,000 FEET WITH NO
SIGNIFICANT WEATHER AND/OR OBSTRUCTIONS TO VISIBILITY.

...SOUTH CENTRAL NEBRASKA...

CITY           SKY/WX    TMP DP  RH WIND       PRES   REMARKS
GRAND ISLAND   CLEAR     62  45  53 CALM      30.06S
HASTINGS       CLEAR     66  41  40 CALM      30.06S
KEARNEY        CLEAR     64  41  42 E6        30.07S
ORD            CLEAR     63  42  46 SE3       30.03F
YORK           CLEAR     66  39  37 MISG      30.06S
AURORA         CLEAR     64  37  35 CALM      30.06S
LEXINGTON      CLEAR     68  41  37 S6        30.06R
HOLDREGE       CLEAR     68  39  34 CALM      30.06S
HEBRON         CLEAR     61  42  49 CALM      30.05S

...NEBRASKA PANHANDLE...

CITY           SKY/WX    TMP DP  RH WIND       PRES   REMARKS
CHADRON        CLEAR     72  43  35 S16       29.92F
ALLIANCE       CLEAR     62  40  44 S10       30.00F
SCOTTSBLUFF    CLEAR     70  41  34 SE7       29.98F
SIDNEY         CLEAR     66  36  32 S12       30.05S

...WESTERN AND NORTH CENTRAL NEBRASKA...

CITY           SKY/WX    TMP DP  RH WIND       PRES   REMARKS
VALENTINE      CLEAR     68  38  33 SE9       29.99F
AINSWORTH      CLEAR     65  40  40 SE7       30.02S
ONEILL         CLEAR     63  43  47 SE6       30.04S
BROKEN BOW     CLEAR     66  44  45 SE6       30.05S
IMPERIAL       CLEAR     69  38  32 S10       30.06R
NORTH PLATTE   CLEAR     64  40  41 SE6       30.04S
MCCOOK         CLEAR     70  40  33 SE6       30.06S

...EASTERN NEBRASKA...

CITY           SKY/WX    TMP DP  RH WIND       PRES   REMARKS
NORFOLK        CLEAR     59  37  44 SE5       30.04S
SO SIOUX CITY  CLEAR     54  39  57 CALM      30.04S
TEKAMAH        CLEAR     61  40  45 NE7       30.04S
COLUMBUS       CLEAR     61  34  36 CALM      30.06S
ALBION         CLEAR     61  38  42 CALM      30.05S
OMAHA EPPLEY   CLEAR     66  40  38 CALM      30.04S
OFFUTT AFB     CLEAR     55  49  82 W1        30.04S
MILLARD        CLEAR     60  45  58 CALM      30.04S
LINCOLN        CLEAR     58  38  47 NE5       30.05S
NEBRASKA CITY  CLEAR     62  31  31 CALM      30.05S
BEATRICE       CLEAR     62  38  40 CALM      30.05S HAZE
FALLS CITY     CLEAR     65  36  34 CALM      30.04R

...NORTHERN KANSAS...

CITY           SKY/WX    TMP DP  RH WIND       PRES   REMARKS
GOODLAND       CLEAR     64  39  39 S9        30.10S
HILL CITY      CLEAR     68  40  35 E5        30.07S
NORTON         CLEAR     68  34  28 SE5       30.06
PHILLIPSBURG   CLEAR     72  41  33 SE3       30.06R
BELOIT         CLEAR     70  46  43 CALM      30.04S
HAYS           CLEAR     66  45  45 SE8       30.07S
RUSSELL        CLEAR     66  46  48 E7        30.05S
CONCORDIA      CLEAR     65  45  48 CALM      30.05S
SALINA         CLEAR     70  47  43 E5        30.05S
TOPEKA         CLEAR     63  46  54 N3        30.04S



USA.gov is the U.S. government's official web portal to all federal, state and local government web resources and services.